Location: Warszawa
(52.2500°N, 21.0000°E)
Time: 20:05:28
(UTC+02:00)

Vanguard 2 - Pass Details

Date: 06 February 2023
Orbit: 553 x 2927 km, 32.9° (Epoch: 27 March)

Event Time Altitude Azimuth Distance (km) Brightness Sun altitude
Rises 20:38:31 0° 222° (SW) 5,071 11.9 -37.4°
Reaches altitude 10° 20:42:03 10° 211° (SSW) 4,408 11.4 -37.9°
Enters shadow 20:47:13 24° 189° (S) 3,809 10.8 -38.6°
